This demonstration page uses our WeatherBlox Daily Observations layout. Learn more.

Left ArrowRight Arrow

Hourly Observations for December 20, 2015

Temp ( °F °C ) Dew Point ( °F °C ) Humidity (%) Winds ( mph kmh ) Pressure ( in mb ) Visibility ( mi km ) Precip ( " mm )
12:53 am 00:53 Clear 37 2.8 34 1.1 89 89 Calm 30.09 1019 7 11 0.00 0.00
1:53 am 01:53 Cloudy 38 3.3 35 1.7 89 89 Calm 30.09 1019 8 13 0.00 0.00
2:53 am 02:53 Cloudy 39 3.9 35 1.7 86 86 Calm 30.10 1019 10 16 0.00 0.00
3:53 am 03:53 Cloudy 39 3.9 35 1.7 86 86 Calm 30.09 1019 10 16 0.00 0.00
4:53 am 04:53 Cloudy 39 3.9 35 1.7 86 86 Calm 30.09 1019 7 11 0.00 0.00
5:53 am 05:53 Cloudy 39 3.9 35 1.7 86 86 Calm 30.10 1019 10 16 0.00 0.00
6:05 am 06:05 Cloudy 39 3.9 35 1.7 86 86 Calm 30.09 1019 8 13 0.00 0.00
6:44 am 06:44 Cloudy with Light Rain 39 4 36 2 87 87 Calm 30.12 1020 5 8 0.00 0.00
6:53 am 06:53 Cloudy with Light Rain 40 4.4 36 2.2 86 86 Calm 30.12 1020 6 10 0.02 0.51
7:09 am 07:09 Cloudy with Light Rain 40 4.4 36 2.2 86 86 Calm 30.12 1020 6 10 0.01 0.25
7:53 am 07:53 Cloudy with Light Rain 40 4.4 36 2.2 86 86 Calm 30.12 1020 5 8 0.05 1.27
8:53 am 08:53 Cloudy with Light Rain 40 4.4 37 2.8 89 89 Calm 30.12 1020 3 5 0.08 2.03
9:53 am 09:53 Cloudy with Rain 41 5 38 3.3 89 89 NW 5 7 30.14 1021 3 5 0.08 2.03
10:53 am 10:53 Cloudy with Rain 43 6.1 40 4.4 89 89 SSW 8 13 30.14 1021 3 5 0.12 3.05
11:50 am 11:50 Cloudy with Rain 45 7 39 4 81 81 SSW 14 22 30.12 1020 3 4 0.00 0.00
11:53 am 11:53 Cloudy with Rain 44 6.7 40 4.4 85 85 SSW 17 28 30.13 1020 3 5 0.15 3.81
11:56 am 11:56 Cloudy with Rain 45 7 39 4 81 81 SSW 13 20 30.12 1020 3 4 0.00 0.00
11:59 am 11:59 Cloudy with Rain 44 6.7 40 4.4 85 85 S 13 20 30.12 1020 3 5 0.02 0.51
12:06 pm 12:06 Cloudy with Rain 45 7 39 4 81 81 S 8 13 30.12 1020 3 4 0.00 0.00
12:31 pm 12:31 Cloudy with Light Rain 44 6.7 40 4.4 85 85 S 13 20 30.12 1020 4 6 0.12 3.05
12:53 pm 12:53 Cloudy with Rain 44 6.7 40 4.4 85 85 S 14 22 30.14 1021 3 5 0.18 4.57
1:00 pm 13:00 Cloudy with Rain 45 7 39 4 81 81 S 16 26 30.12 1020 2 3 0.00 0.00
1:31 pm 13:31 Cloudy with Rain 43 6.1 39 3.9 86 86 SW 6 9 30.12 1020 2 3 0.09 2.29
1:53 pm 13:53 Cloudy with Rain 43 6.1 39 3.9 86 86 SSW 9 15 30.14 1021 2 3 0.17 4.32
2:05 pm 14:05 Cloudy with Rain 44 6.7 40 4.4 85 85 S 10 17 30.15 1021 3 5 0.04 1.02
2:12 pm 14:12 Cloudy with Rain 45 7 39 4 81 81 S 12 19 30.15 1021 4 6 0.00 0.00
2:53 pm 14:53 Cloudy with Light Rain 41 5 37 2.8 86 86 NW 8 13 30.14 1021 3 5 0.12 3.05
3:09 pm 15:09 Cloudy with Light Rain 42 5.6 38 3.3 85 85 SSW 5 7 30.15 1021 3 4 0.02 0.51
3:20 pm 15:20 Cloudy with Light Rain 45 7 39 4 81 81 S 10 17 30.15 1021 3 5 0.00 0.00
3:32 pm 15:32 Cloudy with Light Rain 43 6 39 4 87 87 SSW 7 11 30.15 1021 3 5 0.00 0.00
3:53 pm 15:53 Cloudy with Light Rain 44 6.7 40 4.4 85 85 SSW 16 26 30.15 1021 3 5 0.05 1.27
4:00 pm 16:00 Cloudy with Mist and Fog 45 7 39 4 81 81 SSW 12 19 30.15 1021 4 6 0.00 0.00
4:53 pm 16:53 Cloudy 44 6.7 39 3.9 83 83 SW 13 20 30.15 1021 10 16 0.00 0.03
5:53 pm 17:53 Cloudy with Light Rain 44 6.7 40 4.4 85 85 SW 8 13 30.16 1022 4 6 0.02 0.51
6:10 pm 18:10 Cloudy with Light Rain 45 7 39 4 81 81 SW 6 9 30.18 1022 4 6 0.00 0.00
6:40 pm 18:40 Cloudy with Light Rain 45 7 39 4 81 81 SW 7 11 30.18 1022 4 6 0.00 0.00
6:53 pm 18:53 Cloudy with Mist and Fog 44 6.7 40 4.4 85 85 SSW 8 13 30.16 1022 4 6 0.03 0.76
7:53 pm 19:53 Cloudy with Light Rain 44 6.7 40 4.4 85 85 S 8 13 30.16 1021 5 8 0.02 0.51
8:53 pm 20:53 Cloudy with Mist and Fog 44 6.7 41 5 89 89 SW 7 11 30.17 1022 4 6 0.01 0.25
9:53 pm 21:53 Cloudy with Mist and Fog 44 6.7 41 5 89 89 SSW 12 19 30.16 1021 3 4 0.00 0.03
10:05 pm 22:05 Cloudy with Mist and Fog 44 6.7 41 5 89 89 SSW 8 13 30.15 1021 3 5 0.01 0.25
10:53 pm 22:53 Cloudy with Light Rain 45 7.2 41 5 86 86 SSW 7 11 30.15 1021 4 6 0.02 0.51
11:53 pm 23:53 Cloudy with Light Rain 45 7.2 42 5.6 90 90 WNW 5 7 30.14 1021 3 4 0.01 0.25

Powered by AerisWeather